[[{"header":{"parameterUnit":"m.s-1","parameterCategory":1,"la1":30.2991,"la2":30.254,"lo1":-89.0895,"lo2":-89.0444,"dy":0.0017,"dx":0.0017,"nx":28,"ny":28,"refTime":"2024-07-20T21:00:00:Z","depth":0,"parameterNumber":2,"parameterNumberName":"U-component_of_WINDS"},"data":[0,0,0,0,0,0,0,0,0,0,0,0,0,0,0,0,0,0,0,0,0,0,0,0,0,0,0,0,0,0,0,0,0,0,0,0,0,0,0,0,0,0,0,0,0,0,0,0,0,0,0,0,0,0,0,0,0,0,2.8247,2.8247,0,2.8227,2.8226,2.8226,2.8128,2.8125,2.8123,2.8121,2.81,2.8102,2.8104,0,0,0,0,0,0,0,0,0,0,0,0,0,2.8201,2.8202,2.8248,2.8247,2.8247,2.8227,2.8226,2.8226,2.8128,2.8125,2.8122,2.812,2.81,2.8102,2.8104,0,0,0,0,0,0,0,0,0,0,0,0,0,2.8205,2.8203,2.8248,2.8196,2.8191,2.8227,2.8226,2.8226,2.8129,2.8125,2.8122,2.8118,2.8099,2.8102,2.8104,2.8189,0,0,2.8112,2.8113,0,0,0,0,0,0,0,0,2.8205,2.8207,2.8203,2.8199,2.8194,2.8176,2.8202,2.8214,2.8129,2.8152,2.8121,2.8117,2.8129,2.8128,2.8132,2.8188,2.8187,2.8112,2.8113,2.8114,2.8115,0,0,0,0,0,0,0,2.8204,2.8207,2.8239,2.8203,2.8198,2.8173,2.8169,2.8204,2.816,2.815,2.8143,2.8142,2.8125,2.813,2.8131,2.8187,2.8112,2.8114,2.8115,2.8116,2.8306,2.8309,0,0,0,0,0,0,2.8212,2.8207,2.824,2.8239,2.8191,2.8176,2.8173,2.8185,2.816,2.8152,2.8145,2.8137,2.8128,2.8128,2.813,2.8223,2.8114,2.8117,2.8118,2.8303,2.8307,2.8311,0,0,0,0,0,0,2.8211,2.8215,2.8241,2.8221,2.8222,2.8181,2.8196,2.8187,2.8191,2.8155,2.8147,2.8158,2.8125,2.8126,2.8174,2.8221,2.8118,2.812,2.8298,2.8304,2.8309,2.8414,0,0,0,0,0,0,2.821,2.8216,2.8248,2.8222,2.8224,2.8286,2.8199,2.8189,2.8196,2.8186,2.8165,2.8159,2.8122,2.8171,2.8176,2.8223,2.8122,2.8294,2.8301,2.8307,2.8406,2.8422,2.8436,0,0,0,0,0,2.8209,2.828,2.825,2.8255,2.8263,2.8289,2.8289,2.8246,2.82,2.8231,2.8208,2.8159,2.8216,2.8176,2.8182,2.823,2.8291,2.8299,2.8307,2.8399,2.8419,2.8436,0,0,0,0,0,0,2.8314,2.8276,2.8243,2.8308,2.8302,2.8272,2.8311,2.8269,2.8277,2.8267,2.8213,2.8209,2.8263,2.8252,2.8208,2.8308,2.8245,2.8254,2.8313,2.8332,2.8347,2.8347,2.8124,0,0,0,0,0,2.8345,2.8369,2.8334,2.8395,2.8394,2.8353,2.8363,2.8329,2.8321,2.8318,2.8298,2.8293,2.8308,2.832,2.8333,2.8405,2.8397,2.844,2.8455,2.8468,2.8476,2.8508,2.8526,2.8337,2.8337,2.8337,0,0,2.8409,2.8391,2.841,2.8416,2.8407,2.8432,2.8352,2.8383,2.8399,2.8323,2.8365,2.835,2.834,2.8399,2.8424,2.8391,2.8526,2.8478,2.8489,2.8489,2.8518,2.8536,2.8552,2.8343,2.8342,2.8341,0,0,2.8537,2.8527,2.8574,2.8567,2.8554,2.8526,2.8538,2.8514,2.85,2.8541,2.8483,2.8503,2.8533,2.8526,2.8527,2.8649,2.8603,2.8655,2.8733,2.8765,2.878,2.8793,2.8832,2.8848,2.8664,2.8664,2.8664,0,2.8618,2.8652,2.8604,2.8637,2.864,2.8571,2.8617,2.8612,2.8605,2.8608,2.8572,2.8605,2.8593,2.8647,2.8676,2.8681,2.869,2.8656,2.8782,2.8794,2.8806,2.8843,2.8858,2.867,2.867,2.8669,2.8668,0,2.875,2.8775,2.8815,2.8807,2.8815,2.8855,2.8811,2.8825,2.879,2.8766,2.8807,2.879,2.8796,2.8808,2.8776,2.8856,2.8835,2.8792,2.8726,2.883,2.8864,2.8878,2.8679,2.8677,2.8675,2.8673,0,0,2.8944,2.8907,2.8922,2.8916,2.8896,2.8914,2.895,2.8954,2.8965,2.8963,2.8989,2.9014,2.8972,2.8973,2.8939,2.8968,2.906,2.892,2.8919,2.8943,2.9143,2.9174,2.9191,2.9031,2.9034,2.9036,2.9143,0,2.9063,2.912,2.9076,2.9141,2.9161,2.9095,2.9125,2.9115,2.9093,2.9106,2.9082,2.9098,2.9044,2.9043,2.9069,2.9044,2.9099,2.9036,2.9052,2.9054,2.9053,2.9209,2.9242,2.9344,2.9156,2.9158,2.916,0,2.9209,2.921,2.9276,2.9248,2.9255,2.9283,2.9281,2.9296,2.9283,2.9264,2.9264,2.9221,2.9252,2.919,2.923,2.9187,2.9192,2.918,2.9183,2.918,2.9111,2.9207,2.9376,2.939,2.9181,2.9179,2.9178,0,2.9338,2.9357,2.9397,2.9395,2.9364,2.9384,2.9373,2.9356,2.936,2.936,2.9361,2.9365,2.9367,2.937,2.9328,2.9288,2.9373,2.9308,2.9356,2.9357,2.9374,2.9373,2.9542,2.9384,2.9383,2.9383,2.9383,0,2.9473,2.9516,2.9454,2.9479,2.9523,2.9472,2.9517,2.9498,2.9484,2.9502,2.9447,2.9465,2.9411,2.9424,2.9392,2.9428,2.943,2.9414,2.9404,2.9417,2.9418,2.9417,2.9407,2.9387,2.9386,2.9385,2.9385,0,2.9624,2.9586,2.9624,2.9591,2.9583,2.9617,2.9588,2.9609,2.9582,2.9606,2.9609,2.9567,2.9579,2.9538,2.9544,2.9522,2.9574,2.9555,2.9578,2.957,2.9619,2.9613,2.979,2.9809,2.9642,2.9643,2.9645,0,2.9711,2.9742,2.971,2.9718,2.9709,2.9723,2.9726,2.9677,2.9683,2.9668,2.969,2.9696,2.9699,2.972,2.969,2.9693,2.9671,2.9733,2.9671,2.9681,2.9667,2.9664,2.9665,2.9745,2.9747,2.9748,2.975,0,2.9868,2.9847,2.9853,2.9852,2.9857,2.9855,2.9848,2.9858,2.9805,2.9814,2.9824,2.9826,2.983,2.9836,2.9832,2.9819,2.9775,2.977,2.978,2.9791,2.9802,2.9793,2.9608,2.9765,2.9764,2.9763,2.9762,2.9761,2.9987,3.0009,2.9989,2.9997,2.9987,2.9981,2.9997,2.9972,2.9979,2.9977,2.9948,2.9964,2.9946,2.9936,2.9927,2.9938,2.9909,2.9925,2.9928,2.9932,2.9939,2.9803,2.9937,2.9937,2.9936,2.9936,2.9936,0,3.0137,3.0121,3.0129,3.012,3.0126,3.0083,3.0073,3.008,3.0094,3.0082,3.0084,3.0094,3.0099,3.0069,3.0069,3.0083,3.0062,3.0085,3.0081,3.0078,2.9967,2.9956,3.0101,3.0101,3.0101,3.0101,3.0101,3.0101,3.0216,3.0249,3.0225,3.0251,3.0234,3.0248,3.0245,3.0239,3.0228,3.0241,3.0244,3.0224,3.0203,3.0201,3.0203,3.0194,3.0195,3.0223,3.0207,3.0103,3.0087,3.0071,3.006,3.0225,3.0225,3.0316,3.0317,3.0318]},{"header":{"parameterUnit":"m.s-1","parameterCategory":1,"la1":30.2991,"la2":30.254,"lo1":-89.0895,"lo2":-89.0444,"dy":0.0017,"dx":0.0017,"nx":28,"ny":28,"refTime":"2024-07-20T21:00:00:Z","depth":0,"parameterNumber":3,"parameterNumberName":"V-component_of_WINDS"},"data":[0,0,0,0,0,0,0,0,0,0,0,0,0,0,0,0,0,0,0,0,0,0,0,0,0,0,0,0,0,0,0,0,0,0,0,0,0,0,0,0,0,0,0,0,0,0,0,0,0,0,0,0,0,0,0,0,0,0,4.458,4.4581,0,4.4652,4.4653,4.4654,4.461,4.4608,4.4606,4.4604,4.4673,4.4677,4.468,0,0,0,0,0,0,0,0,0,0,0,0,0,4.44,4.4403,4.458,4.4581,4.4582,4.4652,4.4653,4.4654,4.4611,4.4608,4.4606,4.4603,4.4672,4.4676,4.4681,0,0,0,0,0,0,0,0,0,0,0,0,0,4.4476,4.4405,4.458,4.4569,4.4569,4.4652,4.4653,4.4654,4.4611,4.4608,4.4605,4.4602,4.467,4.4676,4.4681,4.4778,0,0,4.4699,4.4701,0,0,0,0,0,0,0,0,4.4471,4.4482,4.457,4.457,4.457,4.4619,4.4614,4.4695,4.4612,4.4595,4.4604,4.4601,4.4657,4.4664,4.4684,4.4781,4.4784,4.4699,4.4702,4.4705,4.4706,0,0,0,0,0,0,0,4.4466,4.4479,4.4609,4.4571,4.4571,4.4559,4.4566,4.463,4.4642,4.4596,4.4593,4.4603,4.4657,4.4679,4.4685,4.4785,4.4699,4.4704,4.4707,4.471,4.4961,4.4964,0,0,0,0,0,0,4.4462,4.4475,4.4606,4.4611,4.4512,4.4564,4.4573,4.4606,4.4642,4.4644,4.4605,4.46,4.4671,4.4679,4.4687,4.48,4.4705,4.471,4.4713,4.4958,4.4962,4.4965,0,0,0,0,0,0,4.4459,4.4475,4.4603,4.4542,4.4557,4.4571,4.4609,4.4609,4.4631,4.4649,4.465,4.4626,4.4668,4.468,4.4755,4.4802,4.4713,4.4718,4.4954,4.4959,4.4963,4.5028,0,0,0,0,0,0,4.4454,4.4474,4.4512,4.4543,4.4561,4.4672,4.4612,4.4613,4.4642,4.4636,4.4668,4.467,4.4667,4.4747,4.4761,4.4808,4.4722,4.495,4.4956,4.4962,4.5021,4.5034,4.5045,0,0,0,0,0,4.4447,4.4527,4.4514,4.453,4.4609,4.4675,4.4685,4.468,4.4646,4.4683,4.4694,4.4669,4.4795,4.4755,4.477,4.482,4.4947,4.4954,4.4961,4.5016,4.5032,4.5045,0,0,0,0,0,0,4.4499,4.4531,4.4517,4.4609,4.464,4.4667,4.4715,4.4698,4.4738,4.473,4.4722,4.4729,4.4808,4.4822,4.4777,4.4913,4.4865,4.4876,4.4901,4.4916,4.4928,4.4922,4.4727,0,0,0,0,0,4.4522,4.4574,4.4598,4.4677,4.4693,4.4701,4.473,4.4724,4.4754,4.4767,4.4783,4.4812,4.4858,4.4888,4.4932,4.5024,4.5028,4.5065,4.5077,4.5087,4.5095,4.5142,4.5158,4.499,4.499,4.499,0,0,4.4568,4.4592,4.4625,4.4688,4.4711,4.4763,4.4712,4.477,4.4808,4.4775,4.4847,4.486,4.4892,4.4975,4.5013,4.4989,4.5143,4.5096,4.5104,4.5107,4.5151,4.5167,4.5181,4.4995,4.4994,4.4993,0,0,4.4679,4.4703,4.477,4.4794,4.483,4.4835,4.4851,4.4881,4.4889,4.4961,4.4937,4.4981,4.5061,4.5083,4.5105,4.5223,4.5201,4.5237,4.5299,4.5344,4.5358,4.5369,4.5408,4.5423,4.5246,4.5247,4.5247,0,4.4731,4.4811,4.4807,4.4866,4.4893,4.4867,4.4933,4.4956,4.5003,4.5022,4.4995,4.5093,4.5113,4.52,4.5228,4.5248,4.5264,4.5233,4.5356,4.5368,4.5379,4.5416,4.5431,4.5251,4.525,4.525,4.5249,0,4.4872,4.4927,4.4977,4.5024,4.5057,4.5119,4.5122,4.5156,4.5147,4.5153,4.5226,4.5249,4.5295,4.5316,4.5307,4.5401,4.5385,4.5358,4.5308,4.5399,4.5433,4.5448,4.5256,4.5255,4.5254,4.5253,0,0,4.5017,4.5061,4.5079,4.5099,4.5136,4.5177,4.5237,4.5283,4.5311,4.5344,4.5392,4.546,4.5434,4.5459,4.5453,4.5494,4.5582,4.5461,4.5461,4.548,4.5683,4.5702,4.5718,4.5568,4.5571,4.5573,4.5679,0,4.5128,4.5234,4.5232,4.533,4.5379,4.5354,4.5406,4.5433,4.544,4.5481,4.5489,4.5536,4.55,4.5515,4.5554,4.5563,4.5622,4.5555,4.561,4.5612,4.5601,4.5737,4.5757,4.5857,4.5693,4.5696,4.5697,0,4.5271,4.531,4.5413,4.5441,4.5461,4.5508,4.5549,4.559,4.5618,4.5621,4.5649,4.5635,4.5694,4.5644,4.5723,4.5678,4.57,4.5707,4.5711,4.5714,4.5659,4.5741,4.5888,4.5902,4.5719,4.5717,4.5716,0,4.5363,4.5441,4.5512,4.553,4.5565,4.5598,4.5614,4.564,4.5667,4.5703,4.5719,4.5761,4.5783,4.5814,4.5811,4.5776,4.589,4.5841,4.5891,4.5891,4.5915,4.5913,4.6065,4.5933,4.5933,4.5933,4.5932,0,4.5486,4.5549,4.5554,4.5597,4.5667,4.5662,4.573,4.5742,4.5765,4.5809,4.579,4.5831,4.5826,4.5866,4.5865,4.5928,4.5939,4.594,4.5939,4.5941,4.594,4.5954,4.5946,4.5937,4.5936,4.5935,4.5934,0,4.56,4.5606,4.5681,4.5708,4.5716,4.5765,4.5787,4.5827,4.5833,4.5888,4.59,4.5909,4.5955,4.5956,4.601,4.6008,4.6085,4.6077,4.6075,4.6073,4.6122,4.6116,4.6286,4.6307,4.6164,4.6165,4.6166,0,4.5676,4.5725,4.5756,4.5785,4.5803,4.5849,4.5876,4.5873,4.5902,4.5938,4.5973,4.6018,4.6053,4.6128,4.6138,4.6178,4.6169,4.6225,4.6174,4.6174,4.6166,4.6162,4.6166,4.6235,4.6236,4.6237,4.6239,0,4.5811,4.5811,4.5853,4.5895,4.5929,4.5962,4.5992,4.6016,4.6015,4.6049,4.6097,4.6124,4.6178,4.6222,4.626,4.6274,4.6255,4.6255,4.6268,4.6269,4.6266,4.6266,4.61,4.625,4.6249,4.6248,4.6248,4.6247,4.5907,4.5947,4.5976,4.6022,4.6044,4.6073,4.6111,4.6122,4.6162,4.6206,4.6202,4.6254,4.6279,4.6329,4.6346,4.6385,4.6365,4.6385,4.6389,4.6394,4.6398,4.6262,4.6392,4.6392,4.6392,4.6391,4.6391,0,4.6038,4.6055,4.6098,4.6141,4.6176,4.6158,4.619,4.622,4.6267,4.6293,4.6328,4.6381,4.6423,4.6436,4.6476,4.6505,4.6497,4.6515,4.6512,4.6515,4.6415,4.6398,4.6521,4.6521,4.6521,4.6521,4.6521,4.6521,4.611,4.6177,4.6181,4.6258,4.6273,4.6326,4.6345,4.637,4.639,4.6451,4.6487,4.6495,4.6515,4.6556,4.6593,4.6595,4.6609,4.6631,4.6629,4.6535,4.6522,4.651,4.6494,4.6634,4.6635,4.6726,4.6726,4.6727]}]]